Simultaneous Nadir Overpasses (SNOs) Predictions

Prediction of SNOs between LANDSAT-8 and NOAA-19 Satellite Orbit:

Table of predicted SNOs for the next 14.0 days since TLE Epoch: 1/30/2016
Index Date (LANDSAT-8) Time (LANDSAT-8) Lat,Lon (LANDSAT-8) SZA (LANDSAT-8 ) Date (NOAA-19) Time (NOAA-19) Lat,Lon (NOAA-19) SZA (NOAA-19 ) Distance(km) Time Diff (sec)
1 02/01/2016 03:14:41 74.16, 134.78 91.35 02/01/2016 03:13:47 74.15, 134.89 91.34 3.78 54
2 02/01/2016 04:04:10 -74.09, -57.75 88.73 02/01/2016 04:04:45 -74.10, -57.71 88.73 1.25 35
3 02/03/2016 08:48:25 -74.19,-128.60 89.27 02/03/2016 08:47:55 -74.16,-128.62 89.29 3.22 30
4 02/03/2016 09:37:52 74.10, 38.85 90.64 02/03/2016 09:38:57 74.08, 38.83 90.62 3.03 65
5 02/05/2016 14:22:08 74.14, -32.13 90.03 02/05/2016 14:22:08 74.17, -32.16 90.06 3.26 0
6 02/05/2016 15:11:47 -73.56, 134.21 90.57 02/05/2016 15:12:54 -73.59, 136.58 90.54 74.56 67
7 02/07/2016 19:06:23 74.23,-103.01 89.44 02/07/2016 19:05:18 74.22,-103.03 89.43 1.13 65
8 02/07/2016 19:55:52 -74.16, 64.48 90.64 02/07/2016 19:56:14 -74.14, 64.43 90.66 2.60 22
9 02/10/2016 00:40:08 -74.19, -6.52 91.31 02/10/2016 00:39:24 -74.22, -6.52 91.28 3.08 44
10 02/10/2016 01:29:35 74.10, 160.91 88.59 02/10/2016 01:30:27 74.12, 160.98 88.61 2.77 52
11 02/12/2016 06:13:50 74.18, 90.02 87.95 02/12/2016 06:13:37 74.18, 90.08 87.96 1.97 13




NCC Satellite Simultaneous Nadir Overpasses (SNOs) Prediction Service
